Terminal Aerodrome Forecast
Issued by NWS Salt Lake City, UT

Home | Current Version | Previous Version | Text Only | Print | Product List | Glossary On
Versions: 1 2 3 4 5 6 7 8 9 10 11 12 13 14 15 16 17 18 19 20 21 22 23 24 25 26 27 28 29 30 31 32 33 34 35 36 37
000
FTUS45 KSLC 210536
TAFCDC
TAF
KCDC 210536Z 2106/2206 19005KT P6SM SKC
     FM211700 21012G17KT P6SM SCT100
     FM220100 18006KT P6SM BKN140=

USA.gov is the U.S. government's official web portal to all federal, state and local government web resources and services.